Regional Weather Roundup
Issued by NWS Goodland, KS

Home | Current Version | Previous Version | Text Only | Print | Product List | Glossary On
Versions: 1 2 3 4 5 6 7 8 9 10 11 12 13 14 15 16 17 18 19 20 21 22 23 24 25 26 27 28 29 30 31 32 33 34 35 36 37 38 39 40 41 42 43 44 45 46 47 48 49 50
000
ASUS43 KGLD 170608
RWRGLD

GOODLAND FORECAST AREA HOURLY WEATHER ROUNDUP
NATIONAL WEATHER SERVICE GOODLAND KS
1200 AM MDT WED SEP 17 2014

...OFFICIAL OBSERVATIONS...

CITY           SKY/WX    TMP DP  RH WIND       PRES   REMARKS
GOODLAND KS    CLEAR     57  50  77 W5        30.01F
HILL CITY KS   CLEAR     60  58  92 E5        29.95S
IMPERIAL NEB   CLEAR     56  53  90 CALM      29.99S
MCCOOK NEB     CLEAR     57  55  93 N3        29.96F
AKRON CO       CLEAR     61  43  51 S14G24    30.08S
BURLINGTON CO  CLEAR     55  48  77 W6        30.05S
LIMON CO       PTCLDY    49  41  74 N3        30.14S
$$

...UNOFFICIAL OBSERVATIONS...

CITY           SKY/WX    TMP DP  RH WIND       PRES   REMARKS
COLBY KS       CLEAR     55  55 100 CALM      29.98S
GOVE KS          N/A     69  32  25 MISG        N/A
NORTON KS      CLEAR     57  54  88 E5        29.93
SHARON SPRINGS   N/A     62  55  77 W5          N/A
WAKEENEY KS      N/A     66  61  84 MISG        N/A
TRENTON NEB      N/A     58  32  37 CALM        N/A
YUMA CO          N/A     56  47  70 SW5         N/A
$$


USA.gov is the U.S. government's official web portal to all federal, state and local government web resources and services.